Retour au catalogue

STARLINK-34289

ActifCommunicationsVLEO
NORAD 64225·PAYLOAD·🇺🇸 United States

Lancé May 31, 2025 depuis Vandenberg Space Force Base

Loading…

Prochains Passages (prochaines 24 heures)

TLE

FraisSource: CelesTrak SupGP

Époque: Sep 14, 2026, 21:42 UTC

1 64225C 25117Y   26257.90465278  .00035268  00000+0  10420-2 0  2577
2 64225  53.1579 237.6679 0001398  96.4852  73.4055 15.34372900    15

Suivez STARLINK-34289 en temps réel avec AllMySat

Download on the App Store